Weather in Sialkot

Pakistan     32°31′25″N   74°33′06″E
temp.,
°C
wind,
m/s
gust,
m/s
humid.,
%
clouds,
%
prec.,
mm/h
press.,
hPa
HPBL,
m
17 may, tue
tue1723:00+36ene681498 0.0 998163
02:00+32ese232144 0.0 99829
05:00+29ene352684 0.0 99880
08:00+36ese34172 0.0 1000530
11:00+42sw43105 0.0 9992690
14:00+44wnw4476 0.0 9955477
17:00+38ne99154 0.0 995896
20:00+32ne9162438 0.0 998455
18 may, wed
wed1823:00+32ene482487 0.0 1000167
02:00+30ne5102732 0.0 998221
05:00+27e123282 0.0 99919
08:00+35ne44195 0.0 1001438
11:00+43ese11100 0.0 10001961
14:00+44w3580 0.0 9984653
17:00+44wnw5580 0.0 9964470
20:00+38nw33110 0.0 99728
19 may, thu
thu1923:00+34nne34155 0.0 99857
02:00+31ne22230 0.0 99828
05:00+30ne34255 0.0 99861
08:00+37ese45141 0.0 1000487
11:00+44sse4370 0.0 9992018
14:00+47sse4760 0.0 9955670
17:00+47sw4645 0.0 9926058
20:00+38sw4570 0.0 99350
20 may, fri
fri2023:00+33ne511240 0.0 995226
02:00+32ene472497 0.0 994150
05:00+31e41021100 0.0 994217
08:00+38se681226 0.0 996696
11:00+45sse4670 0.0 9942468
14:00+48sw71044 0.0 9916163
17:00+46sw5845 0.0 9896320
20:00+38ese22632 0.0 99030
21 may, sat
sat2123:00+36ese11161567 0.0 992841
02:00+33e815211 0.1 991618
05:00+32ese615220 0.1 991443
08:00+38ese711150 0.0 9931408
11:00+43se99110 0.0 9913267
14:00+45sse677100 0.0 9885738
17:00+39ene12131430 0.0 9891239
20:00+35ne8141916 0.0 991464